Regional Weather Roundup
Issued by NWS

Home | Current Version | Previous Version | Graphics & Text | Print | Product List | Glossary On
Versions: 1 2 3 4 5 6 7 8 9 10 11 12 13 14 15 16 17 18 19 20 21 22 23 24 25 26 27 28 29 30 31 32 33 34 35 36 37 38 39 40 41 42 43 44 45 46 47 48 49 50
000
ASUS43 KDTX 172110
RWRMI
MICHIGAN HOURLY REGIONAL WEATHER ROUNDUP
NATIONAL WEATHER SERVICE DETROIT/PONTIAC MI
500 PM EDT WED SEP 17 2014

NOTE: "FAIR" INDICATES FEW OR NO CLOUDS BELOW 12,000 FEET WITH NO
SIGNIFICANT WEATHER AND/OR OBSTRUCTION TO VISIBILITY.

MIZ047>049-052>055-059>063-066>070-074>076-081>083-172200-
SOUTHEAST LOWER MICHIGAN

CITY           SKY/WX    TMP DP  RH WIND       PRES   REMARKS
ADRIAN         MOSUNNY   68  43  40 NW9       29.99F
ALMA           CLOUDY    64  47  53 W6        29.98S
ANN ARBOR      MOSUNNY   67  41  38 W10       29.98F
BAD AXE        MOSUNNY   66  46  47 W7        29.97S
CARO           MOSUNNY   63  49  60 CALM      29.97S
DETROIT CITY   MOSUNNY   70  41  34 W8        29.98S
DETROIT        MOSUNNY   66  44  45 W8        29.99S
FLINT          PTSUNNY   67  43  41 NW6       29.98F
GROSSE ILE     MOSUNNY   66  45  45 NW6       29.97F
HILLSDALE      PTSUNNY   68  43  40 W3        30.00S
HOWELL         PTSUNNY   65  40  40 W9        29.99S

CITY           SKY/WX    TMP DP  RH WIND       PRES   REMARKS
JACKSON        PTSUNNY   67  44  43 VRB6      29.99S
LAMBERTVILLE   MOSUNNY   70  43  37 NW5       29.98F
LANSING        PTSUNNY   63  48  58 W9        29.99S
LAPEER         CLOUDY    65  40  40 W7        29.98F
MASON          CLOUDY    64  44  46 W6        29.99S
MONROE         SUNNY     68  41  37 W8        29.97S
MT. CLEMENS    MOSUNNY   66  46  49 VRB7      29.96S
PONTIAC        MOSUNNY   66  41  40 NW7       29.98F
PORT HOPE        N/A     67  46  47 W8        29.94F
PORT HURON     MOSUNNY   66  46  48 CALM      29.98S
TRI CITIES     MOSUNNY   68  43  40 SW10      29.98S
TROY           SUNNY     68  38  33 NW7       30.00S
SAGINAW HB     PTSUNNY   66  41  39 W9        29.97S
$$
MIZ043>046-050>051-056>058-064>065-071>073-077>080-172200-
SOUTHWEST LOWER MICHIGAN

CITY           SKY/WX    TMP DP  RH WIND       PRES   REMARKS
BATTLE CREEK   CLOUDY    65  44  46 W7        30.00S
BENTON HARBOR  SUNNY     63  45  51 VRB6      30.01S
BIG RAPIDS     PTSUNNY   66  49  53 W9        29.97S
COLDWATER      PTSUNNY   69  45  42 W6        29.99S
FREMONT        MOCLDY    66  42  42 W9        29.99S
HOLLAND        MOSUNNY   65  47  52 W10       30.01F
GRAND RAPIDS   MOSUNNY   67  47  48 W10       30.00S
IONIA          CLOUDY    65  49  55 W10       29.99S
KALAMAZOO      MOSUNNY   65  45  48 W8        30.00S
LUDINGTON      SUNNY     62  49  63 SW12      29.99S
MARSHALL       CLOUDY    64  44  49 W6        29.99S
MOUNT PLEASANT CLOUDY    65  47  52 W5        29.97S
MUSKEGON       MOSUNNY   65  46  50 W7        30.00F
SOUTH HAVEN    SUNNY     65  47  51 NW10      30.01S
$$
MIZ016>042-172200-
NORTHERN LOWER MICHIGAN

CITY           SKY/WX    TMP DP  RH WIND       PRES   REMARKS
ALPENA         PTSUNNY   68  46  45 W8        29.92S
BEAVER ISLAND  CLOUDY    62  53  72 SW10G17   29.95R
BELLAIRE       SUNNY     67  43  41 W5        29.95S
CADILLAC       MOSUNNY   65  45  47 W7        29.97R
CHARLEVOIX     SUNNY     65  47  52 W14       29.97S
FRANKFORT      SUNNY     64  49  58 SW10G16   29.97R
GAYLORD        MOSUNNY   64  42  44 W14G20    29.95R
GRAYLING       PTSUNNY   65  45  48 W6        29.96S
HARBOR SPRINGS SUNNY     65  45  48 W12G17    29.94R
HOUGHTON LAKE  SUNNY     65  44  46 W8        29.96S
MANISTEE       SUNNY     64  43  45 SW8       29.98S
OSCODA         MOSUNNY   66  44  45 W9        29.93S
PELLSTON       MOSUNNY   65  45  48 W12       29.94R
TRAVERSE CITY  MOSUNNY   66  44  45 VRB7      29.94S
$$
MIZ007>008-015-172200-
EASTERN UPPER MICHIGAN

CITY           SKY/WX    TMP DP  RH WIND       PRES   REMARKS
KINROSS        CLOUDY    54  48  82 NW14G21   29.94R
MACKINAC ISLAN CLOUDY    60  52  74 W14G24    29.93R
NEWBERRY       CLOUDY    48  44  85 NW10G16   29.97R
S. S. MARIE    CLOUDY    52  46  80 NW8       29.95R
MUNISING         N/A     51  46  83 N18       30.01R
$$
MIZ004>006-011>014-085-172200-
CENTRAL UPPER MICHIGAN

CITY           SKY/WX    TMP DP  RH WIND       PRES   REMARKS
MANISTIQUE     CLOUDY    56  48  75 N13       29.97R
ESCANABA       CLOUDY    61  48  63 NE12G21   29.96R
MENOMINEE      SUNNY     70  46  43 NW5       29.91S
SAWYER-GWINN   CLOUDY    45  41  87 N16G22    30.00R
$$
MIZ001>003-009>011-084-172200-
WESTERN UPPER MICHIGAN

CITY           SKY/WX    TMP DP  RH WIND       PRES   REMARKS
IRON MOUNTAIN  CLOUDY    63  49  60 NE14G25   29.93R
HOUGHTON       CLOUDY    47  39  74 NE5       30.04R
COPPER HARBOR    N/A     44  36  73 E12G18    30.07R
IRONWOOD       MOSUNNY   52  46  82 N8        29.99S
$$

ABBREVIATIONS USED IN REMARKS
   TC - TEMPERATURE IN CELSIUS
  WCI - WIND CHILL INDEX
   HX - HEAT INDEX
  VSB - VISIBILITY




USA.gov is the U.S. government's official web portal to all federal, state and local government web resources and services.